Regional Weather Roundup
Issued by NWS Huntsville, AL

Home | Current Version | Previous Version | Text Only | Print | Product List | Glossary On
Versions: 1 2 3 4 5 6 7 8 9 10 11 12 13 14 15 16 17 18 19 20 21 22 23 24 25 26 27 28 29 30 31 32 33 34 35 36 37 38 39 40 41 42 43 44 45 46 47 48 49 50
000
ASUS44 KHUN 172210
RWRHUN

WEATHER ROUNDUP FOR THE TENNESSEE VALLEY
NATIONAL WEATHER SERVICE HUNTSVILLE AL
400 PM CST WED JAN 17 2018

ALZ001>004-172300-
NORTHWEST ALABAMA

CITY           SKY/WX    TMP DP  RH WIND       PRES   REMARKS
COURTLAND HCN    N/A     25 N/A N/A NW8         N/A  WCI  16
RUSSELLVILLE     N/A     23 N/A N/A MISG        N/A
SHOALS AIRPORT FAIR      26  10  50 N8        30.61S WCI  18
SHOALS TVA RES   N/A     25 N/A N/A MISG        N/A
$$

ALZ005>007-016-172300-
NORTH CENTRAL ALABAMA

CITY           SKY/WX    TMP DP  RH WIND       PRES   REMARKS
CULLMAN AG STN   N/A     23 N/A N/A N8          N/A  WCI  14
DECATUR AP     FAIR      24  11  57 N14       30.59R WCI  12
HUNTSVILLE AP  FAIR      24  12  60 N12       30.57S WCI  13
MERIDIANVILLE  FAIR      23  10  58 N12       30.57R WCI  12
REDSTONE ARSN  FAIR      23   9  56 N10       30.56S WCI  12
VINEMONT AP    FAIR      23   8  52 N10       30.55S WCI  12
$$

ALZ008>010-172300-
NORTHEAST ALABAMA

CITY           SKY/WX    TMP DP  RH WIND       PRES   REMARKS
ALBERTVILLE    FAIR      21  14  73 N10G18    30.49S WCI  10
FORT PAYNE     FAIR      25   5  42 N17G25    30.48S WCI  11
SCOTTSBORO AP  FAIR      23   9  54 N15       30.55R WCI  10
SCOTTSBORO HCN   N/A     23 N/A N/A MISG        N/A
VALLEY HEAD      N/A     23 N/A N/A MISG        N/A
$$

TNZ076-096-097-172300-
SOUTHEASTERN MIDDLE TENNESSEE

CITY           SKY/WX    TMP DP  RH WIND       PRES   REMARKS
TULLAHOMA      PTCLDY    16   7  67 N12       30.54S WCI   3
WINCHESTER     PTCLDY    16   7  67 NW8       30.55R WCI   5
$$

...SURROUNDING SITES...

CITY           SKY/WX    TMP DP  RH WIND       PRES   REMARKS
ATLANTA        FAIR      25   9  50 NW21G33   30.36R WCI  11
ANNISTON       FAIR      27  10  49 N6        30.49R WCI  20
BIRMINGHAM     FAIR      27   8  44 N15G22    30.56R WCI  15
CHATTANOOGA    FAIR      24   6  46 NW17      30.51R WCI  11
CORINTH        FAIR      25  10  54 NW9       30.63F WCI  15
DALTON         FAIR      25  12  58 NW15      30.48R WCI  12
GADSDEN        FAIR      26  11  52 NW14      30.53R WCI  14
GOLDEN TRNGL   FAIR      27  14  58 N12       30.64S WCI  17
HALEYVILLE     FAIR      25  12  58 NW7       30.58S WCI  17
JACKSON TN     FAIR      17   8  67 NW7       30.68S WCI   8
MEMPHIS        FAIR      21  11  65 W7        30.67F WCI  12
NASHVILLE      FAIR      21   9  59 N8        30.62S WCI  11
OXFORD MS      FAIR      25   9  50 N8        30.67S WCI  16
ROME           FAIR      28   8  43 N20G25    30.45S WCI  15
SAVANNAH       SUNNY     23  10  58 NW6G12    30.62F WCI  16
SELMER         SUNNY     21   9  58 VRB6      30.62S WCI  14
TUPELO         FAIR      27  10  49 N7        30.64S WCI  19
TUSCALOOSA     FAIR      31  11  43 N12G20    30.60R WCI  22
$$

...GULF COAST WEATHER...

CITY           SKY/WX    TMP DP  RH WIND       PRES   REMARKS
GULFPORT       FAIR      36  10  34 N16G22    30.54S WCI  26
PASCAGOULA     FAIR      35  10  35 N13       30.53R WCI  26
MOBILE         FAIR      34   9  35 N16G25    30.52S WCI  24
GULF SHORES    FAIR      34   8  33 N13G18    30.49S WCI  25
PENSACOLA      FAIR      35   5  28 N15G26    30.48S WCI  25
DESTIN         FAIR      38   8  29 N17       30.46R WCI  28
PANAMA CITY    FAIR      38  11  33 N10       30.42S WCI  31
APPALACHICOLA  FAIR      42  14  32 N15       30.38R
$$




USA.gov is the U.S. government's official web portal to all federal, state and local government web resources and services.